Regional Weather Roundup
Issued by NWS Cleveland, OH

Home | Current Version | Previous Version | Text Only | Print | Product List | Glossary Off
Versions: 1 2 3 4 5 6 7 8 9 10 11 12 13 14 15 16 17 18 19 20 21 22 23 24 25 26 27 28 29 30 31 32 33 34 35 36 37 38 39 40 41 42 43 44 45 46 47 48 49 50

000
ASUS41 KCLE 250910
RWRCLE
OHIO REGIONAL WEATHER ROUNDUP
NATIONAL WEATHER SERVICE CLEVELAND, OH
400 AM EST THU DEC 25 2014

NOTE: "FAIR" INDICATES FEW OR NO CLOUDS BELOW 12,000 FEET WITH NO
SIGNIFICANT WEATHER AND/OR OBSTRUCTIONS TO VISIBILITY.

OHZ001>008-015>018-024>027-034-035-043-044-251000-
   NORTHWEST OHIO

CITY           SKY/WX    TMP DP  RH WIND       PRES   REMARKS
DEFIANCE       CLOUDY    37  34  89 SW12G20   29.71R
FINDLAY        CLOUDY    38  33  82 W20G32    29.71R
TOLEDO EXPRESS CLOUDY    37  33  85 W20       29.67R
TOLEDO EXEC    CLOUDY    38  33  82 SW16G24   29.68R
LIMA           LGT RAIN  38  33  82 W17       29.73R
$$

OHZ009>014-019>023-028>033-038-089-251000-
   NORTHEAST OHIO

CITY           SKY/WX    TMP DP  RH WIND       PRES   REMARKS
CLE-HOPKINS    LGT RAIN  39  33  79 W17       29.69R
CLE-LAKEFRONT  LGT RAIN  40  34  79 SW22G32   29.67R
CUY CO. ARPT   NOT AVBL
LORAIN-ELYRIA  CLOUDY    38  33  82 W20       29.68R
ASHTABULA      CLOUDY    38  33  82 W13       29.64R
AKRON-CANTON   CLOUDY    39  32  76 SW17G26   29.68R
WOOSTER        CLOUDY    36  33  89 W12       29.70R
MANSFIELD      CLOUDY    37  33  85 SW14G23   29.70R
YOUNGSTOWN     CLOUDY    39  32  76 SW15      29.66R
$$

OHZ042-051>053-060>062-070>072-077>081-251000-
  SOUTHWEST OHIO

CITY           SKY/WX    TMP DP  RH WIND       PRES   REMARKS
CINC-COVINGTON CLOUDY    38  31  76 W12       29.87R
CINC-LUNKEN    CLOUDY    38  35  89 W15G21    29.89R
HAMILTON       CLOUDY    39  35  86 SW7       29.86R
DAYTON         CLOUDY    37  34  89 W20       29.80R
WRIGHT-PAT AFB LGT RAIN  38  34  86 SW16      29.80R
DAYTON GENERAL CLOUDY    38  33  82 W14       29.82R
WILMINGTON     CLOUDY    37  31  78 W25G32    29.82R
$$

OHZ036-037-039>041-045>050-054>059-063>069-073>076-082>088-251000-
  CENTRAL AND SOUTHEAST OHIO

CITY           SKY/WX    TMP DP  RH WIND       PRES   REMARKS
COLUMBUS       LGT RAIN  38  33  82 W14G24    29.77R
OSU AIRPORT    CLOUDY    38  33  82 W18G28    29.77R
BOLTON FIELD   CLOUDY    38  35  89 MISG      29.79R
RICKENBACK AFB RAIN      37  35  90 W17G23    29.79R
NEWARK         CLOUDY    39  34  82 W15       29.76R
MARION         CLOUDY    38  32  79 W16G24    29.73R
LANCASTER      CLOUDY    39  35  86 W10       29.79R
ZANESVILLE     CLOUDY    39  32  76 SW14G20   29.76R
NEW PHILLY     CLOUDY    40  32  73 SW13G22   29.74R
$$


USA.gov is the U.S. government's official web portal to all federal, state and local government web resources and services.